Preview of NWS' New Version of Forecast
This preview is not operational and should not be used for support decisions.

Regional Weather Roundup (RWR)

Issued by National Weather Service (NWS)

                            
000
ASUS43 KBIS 211002
RWRND 

NORTH DAKOTA REGIONAL WEATHER ROUNDUP
NATIONAL WEATHER SERVICE BISMARCK ND
400 AM CST THU FEB 21 2019

NOTE: "FAIR" INDICATES FEW OR NO CLOUDS BELOW 12,000 FEET WITH NO
SIGNIFICANT WEATHER AND/OR OBSTRUCTIONS TO VISIBILITY.


NDZ001>003-009>011-017-211100-
NORTHWEST NORTH DAKOTA
  
CITY           SKY/WX    TMP DP  RH WIND       PRES   REMARKS
WILLISTON      LGT SNOW   1  -6  72 SW5       29.95R WCI  -9          
MINOT          LGT SNOW   7   2  80 SW7       29.91R WCI  -5          
$$
 
NDZ018>021-031>035-040>046-211100-
SOUTHWEST NORTH DAKOTA
  
CITY           SKY/WX    TMP DP  RH WIND       PRES   REMARKS
BISMARCK       CLOUDY     4   1  88 SW6       29.95R WCI  -7          
DICKINSON      CLOUDY     1  -5  75 W14       29.86R WCI -17          
GARRISON         N/A      4   0  83 NW13      29.91R WCI -13          
HETTINGER ARPT PTCLDY    -8 -12  83 NW5       29.89R WCI -19          
$$
 
NDZ004>008-012>016-024-026-027-054-211100-
NORTHEAST NORTH DAKOTA
  
CITY           SKY/WX    TMP DP  RH WIND       PRES   REMARKS
GRAND FORKS    LGT SNOW  14  10  84 NW14      29.89R FOG     WCI  -1  
DEVILS LAKE    LGT SNOW  11   8  88 NW10      29.90R FOG     WCI  -3  
$$
 
NDZ022-023-025-028>030-036>039-047>053-211100-
SOUTHEAST NORTH DAKOTA
  
CITY           SKY/WX    TMP DP  RH WIND       PRES   REMARKS
FARGO          LGT SNOW  15  13  91 NW9       29.88R FOG     WCI   3  
JAMESTOWN      PTCLDY     9   7  92 NW13      29.88R WCI  -7          
$$